Weather Roundup
Issued by NWS Chicago, IL

Home | Current Version | Previous Version | Text Only | Print | Product List | Glossary Off
Versions: 1 2 3 4 5 6 7 8 9 10 11 12 13 14 15 16 17 18 19 20 21 22 23 24 25 26 27 28 29 30 31 32 33 34 35 36 37 38 39 40 41 42 43 44 45 46 47 48 49 50

000
NZUS59 KLOT 311308
HRRLOT

CHICAGO AREA WEATHER ROUNDUP
NATIONAL WEATHER SERVICE CHICAGO/ROMEOVILLE IL
800 AM CDT MON AUG 31 2015

NOTE: "FAIR" INDICATES FEW OR NO CLOUDS BELOW 12,000 FEET WITH NO
SIGNIFICANT WEATHER AND/OR OBSTRUCTIONS TO VISIBILITY.

* THESE STATIONS ARE NOT UNDER NWS QUALITY CONTROL. THEY ALSO MAY NOT
  REPORT WEATHER SUCH AS PRECIPITATION OR FOG.

ILZ005-006-012>014-019>023-311400-
NORTHEAST ILLINOIS

CITY           SKY/WX    TMP DP  RH WIND       PRES   REMARKS
OHARE          MOSUNNY   63  63 100 CALM      30.07R FOG
MIDWAY         MOSUNNY   68  64  87 CALM      30.07R FOG
AURORA         MOSUNNY   62  61  96 CALM      30.08S FOG
LANSING*       CLOUDY    65  65 100 CALM      30.08S VSB<1/4
JOLIET*        SUNNY     66  65  97 CALM      30.08S FOG
WAUKEGAN       SUNNY     62  62 100 CALM      30.07R FOG
DUPAGE AIRPORT MOSUNNY   62  60  93 CALM      30.07S FOG
WHEELING       FOG       62  61  96 CALM      30.08S VSB 1/4
KANKAKEE*      FOG       65  65 100 CALM      30.09R VSB<1/4
MORRIS*        FOG       62  62  97 CALM      30.07R VSB<1/4
LEWIS AIRPORT* SUNNY     65  65 100 CALM      30.08S FOG
NORTHERLY IS     N/A     68  65  90 W3          N/A
$$

WIZ051-052-058>065-066-070>072-311400-
SOUTHEAST WISCONSIN

CITY           SKY/WX    TMP DP  RH WIND       PRES   REMARKS
MILWAUKEE      FOG       62  62 100 SW3       30.06S VSB 1/2
KENOSHA*       PTSUNNY   63  62  97 CALM      30.07S FOG
RACINE*        SUNNY     63  61  93 W3        30.08S FOG
BURLINGTON     FOG       58  58  99 CALM      30.07S VSB 1/4
WAUKESHA       FOG       59  59 100 CALM      30.08R VSB 1/4
WEST BEND      MOSUNNY   59  59 100 CALM      30.06R FOG
$$

INZ001>003-010>013-019-020-311400-
NORTHWEST INDIANA

CITY           SKY/WX    TMP DP  RH WIND       PRES   REMARKS
GARY*          FOG       68  66  94 CALM      30.08R VSB 1
MICHIGAN CITY* NOT AVBL
RENSSELAER*    NOT AVBL
VALPARAISO     FOG       66  66 100 CALM      30.09R VSB<1/4
$$

LMZ740>746-311400-
SOUTHERN LAKE MICHIGAN

STATION/POSITION TIME  SKY/WX   TEMP WIND        PRES    VSBY
                                AIR  DIR/SP/G
                 (UTC)          (F)  (DEG/KT/KT) (MB)    (MI)
HARRISON CRIB    1200            67  300/  3/  3   N/A
BURNHAM HARBOR   1300            69  260/  2/  5   N/A
CALUMET HARBOR   NOT AVBL
BURNS HARBOR     NOT AVBL
MICHIGAN CITY    1200            67  210/  4/  4   N/A
$$

ABBREVIATIONS USED IN REMARKS
   TC - TEMPERATURE IN CELSIUS
  WCI - WIND CHILL INDEX
   HX - HEAT INDEX
  VSB - VISIBILITY
$$


USA.gov is the U.S. government's official web portal to all federal, state and local government web resources and services.